Regional Weather Roundup
Issued by NWS Grand Forks, ND

Home | Current Version | Previous Version | Text Only | Print | Product List | Glossary Off
Versions: 1 2 3 4 5 6 7 8 9 10 11 12 13 14 15 16 17 18 19 20 21 22 23 24 25 26 27 28 29 30 31 32 33 34 35 36 37 38 39 40 41 42 43 44 45 46 47 48 49 50

000
ASUS43 KFGF 210431
RWRFGF
PRAIRIE TO PINES  WEATHER ROUNDUP
NATIONAL WEATHER SERVICE EASTERN NORTH DAKOTA/GRAND FORKS ND
1000 PM CST SAT DEC 20 2014

 **SATELLITE DATA USED TO AUGMENT SKY COVER AT AUTOMATED STATIONS**
 *****  WEATHER ACROSS EASTERN NORTH DAKOTA  *****

CITY           SKY/WX    TMP DP  RH WIND       PRES   REMARKS
GRAND FORKS    CLOUDY    31  29  92 S16       29.87F FOG     WCI  20
GRAND FRKS AFB CLOUDY    30  30 100 S14       29.86F WCI  20
GRAND FRKS NWS   N/A     30 N/A N/A S12         N/A  WCI  21
DEVILS LAKE    CLOUDY    27  21  80 S8        29.76F WCI  18
FARGO          CLOUDY    33  29  85 S21G29    29.90S FOG     WCI  21
WAHPETON ARPT  CLOUDY    32  28  86 S21       29.91F WCI  20
$$

 ***** WEATHER ACROSS CENTRAL AND WESTERN NORTH DAKOTA  *****

CITY           SKY/WX    TMP DP  RH WIND       PRES   REMARKS
BISMARCK       PTCLDY    18  16  92 NE5       29.80F WCI  11
MINOT          MOCLDY    33  31  92 SW7       29.71F
JAMESTOWN      CLOUDY    27  24  89 S13       29.81F FOG     WCI  16
MINOT AFB      PTCLDY    31  31 100 SW3       29.71F
GARRISON         N/A     28  24  85 SW5       29.74F WCI  23
WILLISTON      CLEAR     26  21  81 CALM      29.73F
DICKINSON      CLEAR     29  22  75 W7        29.75S WCI  22
HETTINGER      MOCLDY    26  21  81 CALM      29.79F
$$

 *****  OTHER AIRPORT OBSERVATIONS IN OUR AREA  *****

CITY           SKY/WX    TMP DP  RH WIND       PRES   REMARKS
WALHALLA         N/A     28  28 100 S9        29.82F FOG     WCI  20
GRAFTON AIRPOR NOT AVBL
VALLEY CITY AR MIX PCPN  27  27 100 S14       29.84F WCI  15
CANDO          FOG       27  27 100 S6        29.77F VSB 1/2 WCI  20
CAVALIER APRT  CLOUDY    28  28 100 S13       29.82F FOG     WCI  18
GWINNER        CLOUDY    32  32 100 MISG      29.89F
SHEYENNE NWR     N/A     31  29  92 S9        29.95S WCI  23
ROLLA          FOG       23  23 100 MISG      29.75F VSB<1/4
 ***** THE ABOVE OBSERVATIONS ARE NON NWS ARE NOT QUALITY
       CONTROLLED AND MAY MIS-REPORT RAIN FOR SNOW...
$$

  *****  WEATHER ACROSS NORTHERN MINNESOTA  *****

CITY           SKY/WX    TMP DP  RH WIND       PRES   REMARKS
FLAG ISLAND    CLOUDY    28  28 100 S16       29.89F WCI  17
WARROAD        CLOUDY    30  27  86 S7        29.90F FOG     WCI  23
ROSEAU         CLOUDY    30  27  86 S10       29.90S HAZE    WCI  21
HALLOCK        LGT SNOW  30  28  93 MISG      29.86F
THF RVR FALLS  CLOUDY    30  28  93 S13       29.89S WCI  20
BAUDETTE       CLOUDY    30  27  88 S8        29.92F WCI  22
WASKISH        CLOUDY    28  28 100 SE5       29.93F WCI  23
CROOKSTON      CLOUDY    30  30 100 S16       29.90F FOG     WCI  19
STEPHEN NDAWN    N/A     30  28  93 S12         N/A  WCI  21
GREENBUSH NDAW   N/A     28  28 100 S1          N/A
$$
  *****  WEATHER ACROSS CENTRAL AND WEST MINNESOTA  *****

CITY           SKY/WX    TMP DP  RH WIND       PRES   REMARKS
FOSSTON        LGT SNOW  28  27  93 S13       29.89F WCI  18
BEMIDJI        CLOUDY    28  28  96 S10       29.93S FOG     WCI  19
PARK RAPIDS    CLOUDY    29  28  96 S17       29.95S FOG     WCI  17
ELBOW LAKE     CLOUDY    29  28  97 S17       29.96S FOG     WCI  17
WADENA         CLOUDY    27  27 100 S12       29.96F FOG     WCI  16
DETROIT LAKES  CLOUDY    30  30 100 S17G25    29.91F FOG     WCI  18
MOORHEAD       CLOUDY    32  32 100 S20G28    29.91F FOG     WCI  20
FERGUS FALLS   CLOUDY    30  28  93 S18       29.97F FOG     WCI  18
MORRIS MN      CLOUDY    30  28  93 S17       29.95F FOG     WCI  18
STAPLES        CLOUDY    27  27 100 S12       29.98S WCI  16
$$
  *****  WEATHER ELSEWHERE ACROSS MINNESOTA  *****

CITY           SKY/WX    TMP DP  RH WIND       PRES   REMARKS
DULUTH         CLOUDY    30  25  81 S14       30.04S WCI  19
INTRNTL FALLS  CLOUDY    29  27  92 S6        29.96F WCI  23
ELY            CLOUDY    28  27  93 S9G16     30.01F WCI  20
CLOQUET        CLOUDY    28  27  93 S3        30.03F
WHEATON        CLOUDY    28  27  93 SE15      29.96F FOG     WCI  17
BRAINERD       CLOUDY    27  25  92 S15G22    30.01F WCI  15
HIBBING        CLOUDY    29  25  85 S8        30.01S WCI  21
ALEXANDRIA     CLOUDY    29  27  92 S15       29.98S WCI  18
SAINT CLOUD    CLOUDY    31  25  78 S12       30.04F WCI  22
MINNEAPOLIS    CLOUDY    31  26  82 SE9       30.09F WCI  23
$$

  *****  WEATHER ACROSS SOUTH DAKOTA  *****

CITY           SKY/WX    TMP DP  RH WIND       PRES   REMARKS
SIOUX FALLS    FOG       30  29  96 S13       29.98S VSB 1   WCI  20
BROOKINGS      NOT AVBL
WATERTOWN      CLOUDY    29  28  96 S16       29.92R FOG     WCI  17
HURON          CLOUDY    30  29  96 S10       29.94S FOG     WCI  21
SISSETON         N/A     31  30  96 S10       29.91F WCI  22
ABERDEEN       CLOUDY    31  28  89 S16       29.91R WCI  20
MITCHELL       CLOUDY    32  31  96 S12       29.95S WCI  23
PIERRE         CLOUDY    20  18  92 CALM      29.86F FOG
MOBRIDGE       CLOUDY    27  24  89 SE10      29.81F WCI  17
RAPID CITY     CLOUDY    35  26  69 CALM      29.81F
$$

  *****  SOME WEATHER IN NEARBY STATES *****

CITY           SKY/WX    TMP DP  RH WIND       PRES   REMARKS
GLASGOW MT     CLEAR     26  20  77 E12       29.68F WCI  16
GREAT FALLS MT PTCLDY    36  26  67 S10       29.60F
CHEYENNE WY    CLOUDY    33  16  49 SW8       29.91F
SCOTTSBLUFF NE CLOUDY    27  22  81 CALM      29.90F
OMAHA NE       CLOUDY    34  33  96 S9        30.05F FOG
DES MOINES IA  CLOUDY    36  34  92 SE10      30.10F FOG
DAVENPORT IA   CLOUDY    33  29  85 S10       30.20S FOG     WCI  25
CHICAGO IL     CLOUDY    32  26  78 S7        30.24F
EAU CLAIRE WI  CLOUDY    30  28  92 S8        30.13F FOG     WCI  22
LA CROSSE WI   CLOUDY    33  28  81 S7        30.16F
$$

  *****  SOME NATIONAL WEATHER *****

CITY           SKY/WX    TMP DP  RH WIND       PRES   REMARKS
LA GUARDIA NY  CLOUDY    32  22  66 NE3       30.30S
RALEIGH NC     CLOUDY    38  34  85 CALM      30.28S FOG
ATLANTA GA     CLOUDY    48  44  86 E6        30.20S FOG
NEW ORLEANS LA CLOUDY    53  47  79 NE12      30.16S
OKLAHOMA CITY  CLOUDY    42  37  82 S6        30.15R
ALBUQUERQUE NM CLOUDY    37  26  64 SW3       30.09F
SALT LAKE CITY CLOUDY    41  34  76 SE8       30.06F
LOS ANGELES CA MOCLDY    59  54  83 E5        30.14F
BOISE ID       LGT RAIN  40  36  86 SE16      29.91F
SEATTLE WA     CLOUDY    54  52  93 S20G26    29.48R
$$

*** WEATHER ACROSS MANITOBA...SASKATCHEWAN AND ONTARIO ***
                ***ONTARIO***

CITY           SKY/WX    TMP DP  RH WIND       PRES   REMARKS
GERALDTON      CLOUDY    25  23  93 SE5       30.11F WCI  19
THUNDER BAY    CLOUDY    32  30  93 VRB2      30.10F
SIOUX LOOKOUT  FRZ DRZL  28  27  93 S7        29.96  WCI  21
TORONTO        CLOUDY    28  23  80 W3        30.27
BIG TROUT LK   CLOUDY    23  23 100 S8        29.99F WCI  14
PICKLE LAKE    NOT AVBL
DRYDEN         CLOUDY    28  27  93 S9        29.93F WCI  20
KENORA         FRZ DRZL  28  27  93 S13G18    29.90  FOG     WCI  18
$$
                *** MANITOBA***

CITY           SKY/WX    TMP DP  RH WIND       PRES   REMARKS
BRANDON        FOG       23  23 100 E5        29.74F VSB 3/4 WCI  17
DAUPHIN        CLOUDY    25  23  93 SE6       29.76S WCI  18
ISLAND LAKE    FLURRIES  23  21  93 SE8       29.88F WCI  14
PILOT MOUND      N/A     25  25 100 CALM        N/A
THE PAS        CLOUDY    19  18  93 SE8       29.76F FOG     WCI   9
THOMPSON       LGT SNOW  18  16  93 S6        29.82F WCI   9
WINNIPEG       FRZ DRZL  27  27 100 S15G25    29.85  FOG     WCI  15
LYNN LAKE      CLOUDY    14  14 100 SW9       29.73S WCI   2
CHURCHILL      FLURRIES  18  16  93 SW13G21   29.83F WCI   4
GILLAM         FRZ DRZL  19  18  93 S5        29.88F WCI  13
$$
                ***SASKATCHEWAN***

CITY           SKY/WX    TMP DP  RH WIND       PRES   REMARKS
ESTEVAN        PTCLDY    23  23 100 SW8       29.69S WCI  14
KINDERSLEY     PTCLDY    18  16  93 S10       29.54  WCI   6
LLOYDMINSTER   FOG       19  18  93 SE8       29.53  VSB 1/4 WCI   9
PRINCE ALBERT  LGT SNOW  19  19 100 E3        29.64F VSB 1
REGINA         FOG       18  18 100 S5        29.66F VSB 1/8 WCI  11
YORKTON        CLOUDY    25  25 100 S9        29.66F FOG     WCI  15
N. BATTLEFORD  CLOUDY    19  19 100 SE5       29.61F FOG     WCI  13
LA RONGE       FLURRIES  18  16  93 E6        29.68  WCI   9
SASKATOON      CLOUDY    21  21 100 S3        29.63F FOG
SWIFT CURRENT  CLEAR     25  19  80 S10       29.58F WCI  15
$$
NOTE: THESE ARE AUTOMATED STATIONS WITH LIMITED QUALITY CONTROL
      "FAIR" INDICATES FEW OR NO CLOUDS BELOW 12,000 FEET WITH NO
      SIGNIFICANT WEATHER AND/OR OBSTRUCTIONS TO VISIBILITY.
      SKY/WX - SKY CONDITION AND SIGNIFICANT WEATHER.
      TMP - AIR TEMPERATURE.    DP   - DEWPOINT TEMPERATURE.
      RH  - RELATIVE HUMIDITY.  PRES - PRESSURE.
      HX  - HEAT INDEX.         WCI  - WIND CHILL INDEX.
$


USA.gov is the U.S. government's official web portal to all federal, state and local government web resources and services.